This is the latest recevied weather packets stored in our database for station/object K1AWR. If no packets are shown the sender has not sent any weather packets the latest 10 day(s).
| Time | Temp. | Humidity | Pressure | Rain* | Wind** | Luminosity | Snow |
|---|---|---|---|---|---|---|---|
| 1777615304 | 6.67° C | 75% | 1010.1 hPa | 0 mm | - | 0 W/m² | - |
| 1777615003 | 7.22° C | 75% | 1010 hPa | 0 mm | - | 0 W/m² | - |
| 1777614700 | 7.78° C | 71% | 1010.3 hPa | 0 mm | - | 0 W/m² | - |
| 1777614395 | 7.78° C | 71% | 1010.2 hPa | 0 mm | - | 0 W/m² | - |
| 1777614091 | 7.78° C | 71% | 1010.2 hPa | 0 mm | - | 0 W/m² | - |
| 1777613786 | 7.78° C | 73% | 1010.1 hPa | 0 mm | - | 0 W/m² | - |
| 1777613484 | 7.78° C | 69% | 1010.2 hPa | 0 mm | - | 0 W/m² | - |
| 1777613180 | 7.78° C | 72% | 1010.3 hPa | 0 mm | - | 0 W/m² | - |
| 1777612877 | 7.78° C | 68% | 1010.1 hPa | 0 mm | - | 0 W/m² | - |
| 1777612573 | 7.78° C | 69% | 1010.2 hPa | 0 mm | - | 0 W/m² | - |
| 1777612268 | 7.22° C | 73% | 1010.1 hPa | 0 mm | - | 0 W/m² | - |
| 1777611964 | 7.22° C | 74% | 1010.2 hPa | 0 mm | - | 0 W/m² | - |
| 1777611660 | 7.22° C | 75% | 1010.4 hPa | 0 mm | - | 0 W/m² | - |
| 1777611356 | 7.78° C | 73% | 1010.4 hPa | 0 mm | - | 0 W/m² | - |
| 1777611054 | 7.78° C | 71% | 1010.2 hPa | 0 mm | - | 0 W/m² | - |
| 1777610748 | 8.33° C | 70% | 1010.1 hPa | 0 mm | - | 0 W/m² | - |
| 1777610448 | 8.89° C | 66% | 1009.9 hPa | 0 mm | - | 0 W/m² | - |
| 1777610144 | 8.89° C | 68% | 1010 hPa | 0 mm | - | 0 W/m² | - |
| 1777609841 | 8.89° C | 66% | 1009.8 hPa | 0 mm | - | 0 W/m² | - |
| 1777609538 | 8.89° C | 66% | 1009.7 hPa | 0 mm | - | 0 W/m² | - |
| 1777609235 | 8.89° C | 66% | 1009.7 hPa | 0 mm | - | 0 W/m² | - |
| 1777608933 | 8.89° C | 67% | 1009.5 hPa | 0 mm | - | 0 W/m² | - |
| 1777608629 | 8.89° C | 66% | 1009.5 hPa | 0 mm | - | 0 W/m² | - |
| 1777608326 | 8.89° C | 66% | 1009.5 hPa | 0 mm | - | 0 W/m² | - |
| 1777608025 | 8.89° C | 67% | 1009.6 hPa | 0 mm | - | 0 W/m² | - |
* Rain latest hour (hover to see other rain measurements)
** Current wind speed in m/s (hover to see current wind gust speed)